Regional Weather Roundup
Issued by NWS

Home | Current Version | Previous Version | Graphics & Text | Print | Product List | Glossary On
Versions: 1 2 3 4 5 6 7 8 9 10 11 12 13 14 15 16 17 18 19 20 21 22 23 24 25 26 27 28 29 30 31 32 33 34 35 36 37 38 39 40 41 42 43 44 45 46 47 48 49 50
000
ASUS45 KBOU 011810
RWRCO

WEATHER ROUNDUP FOR COLORADO
NATIONAL WEATHER SERVICE DENVER/BOULDER CO
1200 PM MDT SAT AUG 01 2015

NOTE: "FAIR" INDICATES FEW OR NO CLOUDS BELOW 12000 FEET WITH NO
SIGNIFICANT WEATHER AND/OR OBSTRUCTIONS TO VISIBILITY.

COZ001>005-013-030-031-011900-
...NORTHWEST COLORADO...

CITY           SKY/WX    TMP DP  RH WIND       PRES   REMARKS
CRAIG          SUNNY     85  38  18 W7G16     30.26F
HAYDEN         SUNNY     79  36  21 CALM      30.28F
MEEKER         SUNNY     84  46  26 VRB5      30.26F
MOUNT WERNER   NOT AVBL
STEAMBOAT SPGS SUNNY     76  40  27 S7        30.31F
WALDEN         SUNNY     73  34  23 SE5       30.38F
$$

COZ006>008-011-011900-
...WEST CENTRAL VALLEYS...

CITY           SKY/WX    TMP DP  RH WIND       PRES   REMARKS
GRAND JUNCTION MOSUNNY   86  49  27 NE7       30.16F
MONTROSE       MOSUNNY   81  47  30 VRB5      30.26F
EAGLE          MOSUNNY   82  43  24 CALM      30.29F
RIFLE          SUNNY     85  42  22 N5        30.21F
DELTA          MOSUNNY   86  48  26 SE5       30.21F
NUCLA          MOSUNNY   77  46  33 N3        30.32F
$$

COZ017>023-064>068-011900-
...SOUTHWEST COLORADO...

CITY           SKY/WX    TMP DP  RH WIND       PRES   REMARKS
DURANGO        CLOUDY    71  54  54 W9        30.34F
CORTEZ         PTSUNNY   68  62  81 N6        30.33S
PAGOSA SPRINGS CLOUDY    71  49  45 CALM      30.41F THUNDER
TELLURIDE      CLOUDY    64  49  59 CALM      30.53S
WOLF CREEK PAS NOT AVBL
$$

COZ009-010-012-014-032>034-037-058>063-011900-
...CENTRAL COLORADO...

CITY           SKY/WX    TMP DP  RH WIND       PRES   REMARKS
ASPEN          MOSUNNY   78  42  27 NW12      30.37F
BUENA VISTA    SUNNY     77  42  28 E6        30.38S
COPPER MTN     SUNNY     63  23  22 W12G22    30.72S
BERTHOUD PASS  FAIR      54  43  66 MISG      30.76S
COTTONWOOD PAS MOSUNNY   73  36  25 S5        30.53F
GUNNISON       MOSUNNY   72  46  40 SW9       30.41F
KREMMLING      SUNNY     79  32  18 N5        30.35F
LEADVILLE      CLOUDY    68  32  26 NW9       30.52F
MONARCH PASS   PTSUNNY   55  41  58 W6        30.81S
SALIDA         SUNNY     81  40  23 CALM      30.41F
SUNLIGHT       SUNNY     64  45  48 CALM      30.65S
WILKERSON PASS MOSUNNY   61  39  44 CALM      30.67F
$$

COZ069>075-011900-
...SAN LUIS VALLEY/SANGRE DE CRISTO MOUNTAINS...

CITY           SKY/WX    TMP DP  RH WIND       PRES   REMARKS
ALAMOSA        MOSUNNY   73  48  41 NW6       30.38F
LA VETA PASS   PTSUNNY   63  45  51 MISG      30.56F
SAGUACHE       MOSUNNY   70  50  49 S7        30.41F
$$

COZ035-036-038>040-011900-
...NORTHERN COLORADO FRONT RANGE...

CITY           SKY/WX    TMP DP  RH WIND       PRES   REMARKS
DENVER INTL AP MOSUNNY   87  48  25 VRB3      30.16F
DMNS CITY PARK   N/A     87  49  26 SE2G14    30.14F
AURORA         MOSUNNY   86  50  28 SW2       30.18F
FRONT RANGE AP MOSUNNY   86  45  23 E6        30.18F
ERIE MUNI ARPT SUNNY     86  49  28 CALM      30.13F
BOULDER MUN AP SUNNY     82  50  32 CALM      30.15F
CENTENNIAL     MOSUNNY   86  48  26 NE7       30.19F
BROOMFIELD     NOT AVBL
FORT COLLINS   SUNNY     88  55  33 SE8       30.13F
LONGMONT       SUNNY     87  54  32 CALM      30.15F
$$

COZ041-046-047-076>085-087-088-011900-
...PIKES PEAK/PALMER DIVIDE AND SOUTHERN FOOTHILLS...

CITY           SKY/WX    TMP DP  RH WIND       PRES   REMARKS
COLO. SPRINGS  MOSUNNY   80  53  39 CALM      30.25F
A. F. ACADEMY  MOSUNNY   80  56  43 S8        30.26F
ELLICOTT       SUNNY    N/A N/A N/A VRB3      30.24F
FALCON         SUNNY     78  53  41 SE5       30.31F
FORT CARSON    SUNNY     81  57  43 VRB1      30.21F
LIMON          SUNNY     82  59  45 S14       30.20F
MONUMENT HILL  NOT AVBL
TRINIDAD       SUNNY     84  50  30 VRB5      30.21F
$$

COZ042>045-048>051-090-091-011900-
...NORTHEAST COLORADO...

CITY           SKY/WX    TMP DP  RH WIND       PRES   REMARKS
GREELEY ARPT   SUNNY     88  55  33 SE5       30.12F
AKRON          SUNNY     88  55  32 SE15G26   30.13F
BURLINGTON     SUNNY     84  58  40 S17       30.14F
WRAY           SUNNY     92  53  26 S18G24    30.09F
STERLING       SUNNY     90  59  35 SW9       30.06F
HOLYOKE        NOT AVBL
FORT MORGAN    SUNNY     89  51  27 SE9       30.11F
$$

COZ086-089-092>099-011900-
...SOUTHEAST COLORADO...

CITY           SKY/WX    TMP DP  RH WIND       PRES   REMARKS
PUEBLO         SUNNY     86  55  34 VRB3      30.13F
LA JUNTA       SUNNY     87  60  40 VRB3      30.11F
LAMAR          SUNNY     89  61  38 SE9       30.07F
SPRINGFIELD      N/A     83  64  52 VRB6      30.13F
$$


USA.gov is the U.S. government's official web portal to all federal, state and local government web resources and services.